FW7490 Weather Reports


Display with metric or nautical units.
time (UTC)temp
F
wind
direction
speed
MPH
gust
MPH
rain 1hr
in
rain 24hr
in
rain mn
in
humidity
%
barometer
mb
20260505034525 53 100 0.0 2.0 0.00 0.00 0.00 65 1012.3
20260505033034 54 100 0.0 0.0 0.00 0.00 0.00 63 1012.2
20260505031524 55 100 0.0 0.0 0.00 0.00 0.00 62 1012.3
20260505030024 55 100 0.0 1.0 0.00 0.00 0.00 62 1012.4
20260505024547 55 96 0.0 0.0 0.00 0.00 0.00 64 1012.4
20260505023029 55 94 0.0 0.0 0.00 0.00 0.00 64 1012.4
20260505021541 56 94 0.0 0.0 0.00 0.00 0.00 63 1012.4
20260505020022 57 94 0.0 0.0 0.00 0.00 0.00 60 1012.2
20260505014525 59 94 0.0 0.0 0.00 0.00 0.00 59 1012.1
20260505013021 60 94 0.0 0.0 0.00 0.00 0.00 58 1012.1
20260505011527 61 94 0.0 0.0 0.00 0.00 0.00 55 1011.9
20260505010021 63 94 0.0 0.0 0.00 0.00 0.00 54 1011.8
20260505004534 65 94 0.0 0.0 0.00 0.00 0.00 50 1011.7
20260505003019 67 94 0.0 0.0 0.00 0.00 0.00 47 1011.7
20260505001519 68 90 0.0 1.0 0.00 0.00 0.00 46 1011.5
20260505000019 70 317 0.0 0.0 0.00 0.00 0.00 39 1011.5
20260504234519 73 223 0.0 0.0 0.00 0.00 0.00 38 1011.5
20260504233016 74 225 0.0 3.0 0.00 0.00 0.00 34 1011.3
20260504231515 75 202 0.0 4.0 0.00 0.00 0.00 30 1011.5
20260504230015 76 296 2.0 6.0 0.00 0.00 0.00 28 1011.4
20260504224513 76 213 1.0 8.0 0.00 0.00 0.00 27 1011.5
20260504223012 77 171 1.0 6.0 0.00 0.00 0.00 27 1011.4
20260504221511 78 338 2.0 9.0 0.00 0.00 0.00 27 1011.5
20260504220010 78 205 2.0 6.0 0.00 0.00 0.00 27 1011.5
20260504214509 78 355 2.0 11.0 0.00 0.00 0.00 27 1011.5
20260504213007 77 246 2.0 8.0 0.00 0.00 0.00 27 1011.6
20260504211506 77 217 1.0 9.0 0.00 0.00 0.00 32 1011.6
20260504210006 77 234 3.0 12.0 0.00 0.00 0.00 29 1011.8
20260504204505 77 285 4.0 10.0 0.00 0.00 0.00 29 1012.0
20260504203059 76 200 3.0 10.0 0.00 0.00 0.00 30 1012.3
20260504201603 77 192 4.0 14.0 0.00 0.00 0.00 29 1012.3
20260504194549 75 164 1.0 9.0 0.00 0.00 0.00 34 1012.7
20260504193047 75 322 1.0 7.0 0.00 0.00 0.00 36 1013.0
20260504191544 75 342 3.0 8.0 0.00 0.00 0.00 35 1013.2
20260504190043 74 155 3.0 10.0 0.00 0.00 0.00 36 1013.7
20260504184540 73 194 3.0 10.0 0.00 0.00 0.00 37 1014.0
20260504183037 73 278 1.0 8.0 0.00 0.00 0.00 37 1014.2
20260504181535 72 229 2.0 8.0 0.00 0.00 0.00 39 1014.4
20260504180032 71 173 2.0 10.0 0.00 0.00 0.00 38 1014.5
20260504174529 70 237 1.0 8.0 0.00 0.00 0.00 38 1014.7
20260504173025 69 286 3.0 11.0 0.00 0.00 0.00 38 1015.0
20260504171522 68 261 2.0 10.0 0.00 0.00 0.00 41 1015.1
20260504081549 37 305 0.0 0.0 0.00 0.00 0.00 74 1017.1
20260504050024 41 305 0.0 0.0 0.00 0.00 0.00 66 1017.1
20260504044523 41 305 0.0 0.0 0.00 0.00 0.00 65 1017.0
20260504043035 41 305 0.0 0.0 0.00 0.00 0.00 65 1017.0
20260504041519 42 305 0.0 0.0 0.00 0.00 0.00 65 1017.0
20260504040017 42 305 0.0 0.0 0.00 0.00 0.00 65 1016.8